Lid_Strength_Index
1 1 1 1 1 1 1 1 0 1 0 0 0 1 1 1 1 1 1 2 2 2
1 1 1 1 2 2 1 1 1 0 1 1 1 1 1 1 1 1 1 1 1 2
1 1 2 2 3 3 3 2 2 1 1 1 1 1 1 1 1 1 1 1 2 2
2 2 3 3 4 3 3 3 2 1 1 1 1 1 1 1 1 2 2 1 2 2
4 4 4 4 4 4 4 3 3 2 2 2 1 1 1 2 2 2 2 2 2 2
5 5 6 5 5 4 4 4 3 3 3 3 2 1 1 1 2 2 2 2 2 2
8 7 7 6 6 6 5 5 4 5 4 3 2 2 1 1 2 2 2 2 2 2
9 8 8 7 6 5 5 4 5 5 5 4 3 2 1 1 2 4 6 6 7 7
9 8 8 8 7 7 7 6 3 4 3 2 1 4 5 3 6 7 8 8 9 8
9 10 10 9 9 9 9 7 6 6 6 6 6 7 7 6 7 8 9 9 10 10
11 10 10 10 10 10 9 9 8 8 8 8 8 9 9 9 9 10 11 10 11 11
11 11 10 10 11 10 10 10 10 10 10 10 10 10 10 10 10 11 11 10 10 10
10 10 11 10 12 11 11 11 11 11 11 10 11 11 11 10 11 12 12 11 11 11
10 10 11 11 11 11 11 11 11 12 11 11 11 12 12 11 11 12 12 12 12 12